Montgomery, NY

8:44 PM EDT on October 22, 2019 (GMT -0400)
Orange County

Weather History for KMGJ - September, 2019

Change the Weather History Date:

Tuesday, September 17, 2019

  Actual Average (WUND) Record (WUND)
Temperature  
Mean Temperature 60 °F -  
Max Temperature 73 °F - - (-1)
Min Temperature 46 °F - - (-1)
Degree Days  
Heating Degree Days 6    
Growing Degree Days 10 (Base 50)    
Moisture  
Dew Point 49 °F    
Average Humidity 89    
Maximum Humidity 100    
Minimum Humidity 38    
Precipitation  
Precipitation 0.00 in - - ()
Sea Level Pressure  
Sea Level Pressure 30.13 in    
Wind  
Wind Speed 1 mph (NNE)    
Max Wind Speed 8 mph    
Max Gust Speed -    
Visibility 5 miles    
Events Fog    
Averages and records for this station are not official NWS values.
T = Trace of Precipitation, MM = Missing Value Source: NWS Daily Summary

Daily Weather History Graph

Daily Weather History Graph

Search for Another Location

Airport or City:

Astronomy

Sep. 17, 2019 Rise Set
Actual Time 6:39 AM EDT 7:03 PM EDT
Civil Twilight 6:11 AM EDT 7:31 PM EDT
Nautical Twilight 5:38 AM EDT 8:03 PM EDT
Astronomical Twilight 5:05 AM EDT 8:37 PM EDT
Moon 9:02 PM EDT (9/17) 9:43 AM EDT (9/17)
Length of Visible Light 13h 19m
Length of Day
12h 24m
Waning Gibbous, 89% of the Moon is Illuminated
Sep 17
Waning Gibbous
Sep 21
Last Quarter
Sep 28
New
Oct 5
First Quarter
Oct 13
Full

Hourly Weather History & Observations

Time (EDT) Temp. Windchill Dew Point Humidity Pressure Visibility Wind Dir Wind Speed Gust Speed Precip Events Conditions
12:06 AM 53.1 °F - 53.1 °F 100% 30.08 in 10.0 mi Calm Calm - N/A   Partly Cloudy
12:38 AM 53.1 °F - 53.1 °F 100% 30.09 in 1.5 mi Calm Calm - N/A   Clear
12:41 AM 53.1 °F - 53.1 °F 100% 30.09 in 0.8 mi Calm Calm - N/A   Mist
12:49 AM 51.8 °F - 51.8 °F 100% 30.09 in 1.2 mi Calm Calm - N/A   Partly Cloudy
12:54 AM 51.1 °F - 51.1 °F 100% 30.09 in 1.2 mi Calm Calm - N/A   Partly Cloudy
1:01 AM 52.0 °F - 52.0 °F 100% 30.10 in 3.0 mi Calm Calm - N/A   Partly Cloudy
1:32 AM 50.0 °F - 50.0 °F 100% 30.11 in 1.5 mi Calm Calm - 0.00 in   Partly Cloudy
1:39 AM 51.1 °F - 51.1 °F 100% 30.11 in 1.0 mi Calm Calm - 0.00 in   Partly Cloudy
1:42 AM 51.1 °F - 51.1 °F 100% 30.11 in 2.5 mi Calm Calm - 0.00 in   Partly Cloudy
1:49 AM 51.8 °F - 51.8 °F 100% 30.11 in 10.0 mi Calm Calm - 0.00 in   Partly Cloudy
1:54 AM 51.1 °F - 50.0 °F 96% 30.11 in 10.0 mi Calm Calm - 0.00 in   Partly Cloudy
2:37 AM 50.0 °F - 50.0 °F 100% 30.11 in 1.8 mi Calm Calm - N/A   Partly Cloudy
2:44 AM 50.0 °F - 50.0 °F 100% 30.11 in 3.0 mi Calm Calm - N/A   Partly Cloudy
2:54 AM 50.0 °F - 50.0 °F 100% 30.11 in 5.0 mi Calm Calm - N/A   Clear
3:12 AM 50.0 °F - 50.0 °F 100% 30.11 in 1.8 mi Calm Calm - N/A   Clear
3:23 AM 50.0 °F - 50.0 °F 100% 30.11 in 3.0 mi Calm Calm - N/A   Clear
3:35 AM 48.9 °F - 48.9 °F 100% 30.11 in 2.5 mi Calm Calm - N/A   Partly Cloudy
3:44 AM 48.9 °F - 48.9 °F 100% 30.11 in 1.0 mi Calm Calm - N/A   Mist
3:52 AM 48.2 °F - 48.2 °F 100% 30.10 in 0.5 mi Calm Calm - N/A Fog Fog
3:54 AM 46.9 °F - 46.9 °F 100% 30.11 in 0.5 mi Calm Calm - N/A Fog Fog
4:07 AM 48.0 °F - 48.0 °F 100% 30.11 in 1.2 mi Calm Calm - N/A   Mostly Cloudy
4:32 AM 46.9 °F - 46.9 °F 100% 30.11 in 3.0 mi Calm Calm - N/A   Scattered Clouds
4:35 AM 46.9 °F - 46.9 °F 100% 30.11 in 1.8 mi Calm Calm - N/A   Mostly Cloudy
4:40 AM 46.9 °F - 46.9 °F 100% 30.11 in 0.8 mi Calm Calm - N/A   Mist
4:49 AM 46.4 °F 45.2 °F 46.4 °F 100% 30.11 in 1.2 mi SSW 3.5 mph - N/A   Mostly Cloudy
4:54 AM 46.9 °F - 46.0 °F 97% 30.12 in 2.5 mi SW 4.6 mph - N/A   Scattered Clouds
5:01 AM 46.9 °F - 46.0 °F 97% 30.12 in 10.0 mi SW 3.5 mph - N/A   Scattered Clouds
5:54 AM 46.9 °F - 46.0 °F 97% 30.13 in 5.0 mi Calm Calm - N/A   Clear
6:00 AM 46.9 °F - 46.0 °F 97% 30.14 in 1.8 mi Calm Calm - N/A   Clear
6:05 AM 46.9 °F - 46.9 °F 100% 30.14 in 0.8 mi Calm Calm - N/A   Clear
6:14 AM 46.9 °F - 46.9 °F 100% 30.14 in 1.2 mi Calm Calm - N/A   Clear
6:18 AM 46.9 °F - 46.9 °F 100% 30.14 in 3.0 mi Calm Calm - N/A   Clear
6:23 AM 46.9 °F - 46.9 °F 100% 30.14 in 1.8 mi Calm Calm - N/A   Clear
6:54 AM 46.0 °F - 46.0 °F 100% 30.16 in 0.2 mi Calm Calm - N/A Fog Fog
7:10 AM 46.0 °F - 46.0 °F 100% 30.16 in 1.5 mi Calm Calm - N/A   Mostly Cloudy
7:18 AM 46.0 °F - 46.0 °F 100% 30.16 in 0.8 mi Calm Calm - N/A   Mist
7:30 AM 46.9 °F - 46.9 °F 100% 30.16 in 1.5 mi Calm Calm - N/A   Scattered Clouds
7:32 AM 48.0 °F - 48.0 °F 100% 30.16 in 3.0 mi Calm Calm - N/A   Scattered Clouds
7:54 AM 48.9 °F - 48.9 °F 100% 30.17 in 10.0 mi Calm Calm - N/A   Clear
8:54 AM 54.0 °F - 53.1 °F 97% 30.18 in 10.0 mi Calm Calm - N/A   Clear
9:54 AM 61.0 °F - 52.0 °F 72% 30.18 in 10.0 mi Calm Calm - N/A   Clear
10:54 AM 66.0 °F - 51.1 °F 59% 30.18 in 10.0 mi Calm Calm - N/A   Clear
11:54 AM 69.1 °F - 46.0 °F 44% 30.17 in 10.0 mi NNE 8.1 mph - N/A   Clear
12:54 PM 70.0 °F - 46.0 °F 42% 30.16 in 10.0 mi NE 4.6 mph - N/A   Clear
1:54 PM 72.0 °F - 46.9 °F 41% 30.14 in 10.0 mi Variable 4.6 mph - N/A   Clear
2:54 PM 73.9 °F - 46.9 °F 38% 30.11 in 10.0 mi NNW 6.9 mph - N/A   Clear
3:54 PM 73.9 °F - 48.0 °F 40% 30.10 in 10.0 mi Variable 5.8 mph - N/A   Clear
4:54 PM 73.0 °F - 50.0 °F 44% 30.10 in 10.0 mi NE 8.1 mph - N/A   Clear
5:54 PM 69.1 °F - 46.0 °F 44% 30.11 in 10.0 mi ENE 6.9 mph - N/A   Clear
6:54 PM 64.0 °F - 45.0 °F 50% 30.12 in 10.0 mi NNE 4.6 mph - N/A   Clear
7:54 PM 57.0 °F - 50.0 °F 77% 30.14 in 10.0 mi Calm Calm - N/A   Clear
8:54 PM 53.1 °F - 48.9 °F 86% 30.15 in 10.0 mi Calm Calm - N/A   Clear
9:54 PM 51.1 °F - 48.0 °F 89% 30.17 in 10.0 mi Calm Calm - N/A   Clear
10:54 PM 50.0 °F - 48.0 °F 93% 30.18 in 10.0 mi Calm Calm - N/A   Clear
11:54 PM 48.0 °F - 46.9 °F 96% 30.19 in 10.0 mi Calm Calm - N/A   Clear